Total_Precipitation_Accumulation
0.25 0.20 0.28 0.31 0.27 0.30 0.41 0.39 0.30 0.15 0.13 0.13 0.13 0.14 0.14 0.14 0.13 0.12 0.09 0.08 0.10 0.12 0.16 0.21 0.25 0.28 0.31 0.37 0.46 0.53 0.52 0.59 0.62 0.69 0.77 0.77 0.75 0.79 0.88 1.01 1.09 1.10 1.07 1.00
0.25 0.15 0.20 0.24 0.19 0.19 0.21 0.16 0.14 0.11 0.13 0.15 0.16 0.14 0.14 0.13 0.12 0.13 0.11 0.09 0.10 0.12 0.16 0.22 0.27 0.30 0.34 0.38 0.43 0.52 0.52 0.57 0.59 0.66 0.77 0.79 0.74 0.77 0.88 0.99 1.04 1.04 1.04 1.02
0.46 0.19 0.39 0.41 0.19 0.16 0.17 0.15 0.13 0.15 0.17 0.15 0.15 0.15 0.16 0.15 0.15 0.14 0.12 0.12 0.11 0.14 0.19 0.23 0.28 0.29 0.34 0.37 0.41 0.49 0.51 0.53 0.58 0.67 0.71 0.79 0.77 0.80 0.89 0.99 1.02 1.02 0.98 0.96
0.78 0.57 0.79 0.35 0.14 0.13 0.16 0.16 0.14 0.14 0.12 0.13 0.16 0.17 0.19 0.18 0.18 0.16 0.16 0.17 0.16 0.18 0.21 0.22 0.26 0.25 0.30 0.34 0.44 0.51 0.52 0.49 0.55 0.64 0.67 0.77 0.82 0.83 0.93 1.01 0.98 0.98 0.97 0.93
1.09 0.78 0.38 0.18 0.17 0.22 0.28 0.27 0.18 0.13 0.09 0.08 0.11 0.15 0.19 0.16 0.15 0.16 0.18 0.20 0.20 0.20 0.21 0.21 0.24 0.24 0.24 0.29 0.40 0.50 0.54 0.48 0.50 0.59 0.65 0.73 0.80 0.86 0.93 1.01 0.96 0.94 0.92 0.93
1.21 0.87 0.39 0.22 0.16 0.18 0.28 0.38 0.21 0.14 0.11 0.09 0.12 0.22 0.22 0.17 0.15 0.16 0.16 0.19 0.20 0.19 0.19 0.21 0.24 0.25 0.23 0.25 0.33 0.44 0.52 0.45 0.47 0.54 0.57 0.66 0.73 0.83 0.90 0.91 0.89 0.91 0.87 0.87
1.01 0.77 0.29 0.18 0.19 0.22 0.45 0.48 0.22 0.16 0.14 0.13 0.17 0.21 0.19 0.19 0.19 0.19 0.19 0.18 0.17 0.18 0.19 0.22 0.25 0.24 0.25 0.27 0.29 0.38 0.50 0.46 0.48 0.52 0.55 0.63 0.71 0.75 0.82 0.86 0.84 0.89 0.87 0.85
0.75 0.80 0.38 0.21 0.28 0.46 0.50 0.25 0.17 0.15 0.13 0.12 0.12 0.10 0.11 0.14 0.19 0.23 0.21 0.19 0.18 0.18 0.18 0.19 0.22 0.25 0.27 0.30 0.31 0.37 0.46 0.48 0.53 0.57 0.59 0.63 0.68 0.67 0.70 0.80 0.84 0.87 0.90 0.93
0.61 0.46 0.27 0.24 0.31 0.33 0.25 0.20 0.16 0.14 0.13 0.12 0.10 0.09 0.11 0.14 0.19 0.22 0.22 0.20 0.20 0.20 0.18 0.18 0.20 0.25 0.31 0.36 0.35 0.40 0.45 0.48 0.54 0.61 0.64 0.65 0.64 0.65 0.69 0.75 0.82 0.86 0.89 0.90
0.39 0.24 0.18 0.18 0.19 0.18 0.15 0.14 0.14 0.13 0.12 0.12 0.11 0.09 0.11 0.13 0.18 0.21 0.22 0.22 0.22 0.22 0.20 0.20 0.20 0.24 0.32 0.38 0.37 0.41 0.45 0.47 0.52 0.57 0.63 0.67 0.63 0.60 0.62 0.70 0.81 0.82 0.84 0.82
0.28 0.17 0.16 0.16 0.14 0.12 0.11 0.10 0.11 0.10 0.09 0.09 0.10 0.10 0.11 0.12 0.16 0.21 0.24 0.23 0.23 0.24 0.23 0.22 0.22 0.26 0.33 0.38 0.38 0.42 0.42 0.42 0.46 0.49 0.60 0.70 0.69 0.63 0.62 0.63 0.77 0.85 0.81 0.79
0.22 0.15 0.18 0.17 0.13 0.11 0.11 0.11 0.12 0.12 0.10 0.08 0.09 0.10 0.12 0.12 0.15 0.22 0.26 0.25 0.24 0.25 0.24 0.25 0.26 0.30 0.36 0.39 0.38 0.39 0.40 0.40 0.43 0.47 0.55 0.64 0.67 0.70 0.76 0.74 0.76 0.75 0.74 0.79
0.14 0.11 0.11 0.11 0.11 0.10 0.10 0.10 0.10 0.11 0.12 0.10 0.09 0.10 0.11 0.12 0.14 0.20 0.25 0.26 0.27 0.28 0.28 0.28 0.29 0.33 0.37 0.40 0.41 0.41 0.41 0.42 0.44 0.47 0.52 0.59 0.60 0.61 0.72 0.82 0.85 0.79 0.73 0.74
0.07 0.07 0.08 0.08 0.10 0.11 0.11 0.10 0.08 0.09 0.11 0.10 0.10 0.09 0.09 0.10 0.13 0.20 0.28 0.29 0.28 0.27 0.29 0.31 0.32 0.36 0.39 0.43 0.44 0.43 0.41 0.46 0.50 0.49 0.52 0.58 0.58 0.56 0.59 0.66 0.74 0.77 0.78 0.75
0.06 0.08 0.08 0.08 0.09 0.11 0.13 0.11 0.09 0.10 0.11 0.10 0.09 0.08 0.09 0.12 0.15 0.23 0.30 0.30 0.29 0.27 0.30 0.33 0.36 0.40 0.43 0.47 0.47 0.43 0.44 0.47 0.51 0.51 0.54 0.58 0.59 0.57 0.58 0.59 0.61 0.66 0.73 0.81
0.10 0.10 0.09 0.09 0.10 0.12 0.14 0.14 0.13 0.12 0.12 0.12 0.10 0.10 0.11 0.13 0.16 0.22 0.28 0.32 0.32 0.32 0.34 0.36 0.41 0.47 0.50 0.53 0.52 0.48 0.49 0.57 0.59 0.55 0.56 0.61 0.63 0.64 0.62 0.61 0.63 0.64 0.66 0.74
0.12 0.11 0.10 0.10 0.10 0.12 0.15 0.17 0.15 0.12 0.12 0.13 0.12 0.11 0.11 0.13 0.15 0.17 0.23 0.29 0.34 0.36 0.38 0.41 0.47 0.52 0.56 0.59 0.59 0.56 0.56 0.60 0.66 0.60 0.58 0.65 0.70 0.70 0.67 0.68 0.69 0.66 0.63 0.70
0.11 0.12 0.12 0.11 0.11 0.11 0.12 0.14 0.14 0.11 0.12 0.12 0.12 0.11 0.12 0.15 0.17 0.20 0.24 0.29 0.31 0.31 0.34 0.41 0.50 0.56 0.57 0.63 0.65 0.62 0.61 0.63 0.65 0.64 0.63 0.68 0.74 0.74 0.73 0.73 0.73 0.70 0.67 0.71
0.08 0.08 0.08 0.08 0.07 0.08 0.08 0.10 0.11 0.09 0.10 0.11 0.12 0.14 0.16 0.17 0.19 0.21 0.23 0.26 0.29 0.33 0.37 0.42 0.52 0.53 0.55 0.63 0.70 0.66 0.66 0.69 0.72 0.72 0.67 0.74 0.78 0.77 0.76 0.75 0.74 0.70 0.70 0.71
0.07 0.07 0.07 0.07 0.06 0.07 0.07 0.08 0.10 0.09 0.10 0.11 0.13 0.15 0.17 0.18 0.20 0.22 0.23 0.25 0.31 0.42 0.44 0.49 0.52 0.55 0.58 0.60 0.67 0.69 0.73 0.75 0.78 0.79 0.75 0.74 0.78 0.82 0.80 0.78 0.76 0.74 0.74 0.73
0.09 0.09 0.09 0.09 0.08 0.07 0.08 0.08 0.11 0.11 0.11 0.13 0.16 0.18 0.19 0.19 0.20 0.22 0.24 0.25 0.28 0.37 0.44 0.52 0.56 0.61 0.62 0.65 0.71 0.74 0.80 0.80 0.82 0.85 0.85 0.82 0.82 0.84 0.82 0.81 0.80 0.77 0.75 0.75
0.14 0.13 0.13 0.13 0.11 0.10 0.10 0.10 0.12 0.14 0.14 0.16 0.18 0.19 0.20 0.19 0.21 0.22 0.25 0.29 0.32 0.42 0.49 0.54 0.61 0.70 0.74 0.75 0.71 0.76 0.81 0.82 0.83 0.86 0.87 0.85 0.85 0.88 0.86 0.84 0.85 0.80 0.75 0.74
0.19 0.19 0.18 0.17 0.15 0.13 0.12 0.12 0.14 0.17 0.20 0.21 0.21 0.22 0.23 0.22 0.24 0.27 0.30 0.31 0.36 0.47 0.55 0.61 0.71 0.80 0.84 0.76 0.73 0.77 0.82 0.83 0.84 0.87 0.90 0.87 0.86 0.88 0.89 0.87 0.86 0.82 0.79 0.76
0.22 0.23 0.22 0.21 0.19 0.17 0.17 0.17 0.18 0.21 0.25 0.26 0.26 0.27 0.28 0.27 0.27 0.29 0.35 0.39 0.45 0.55 0.61 0.69 0.78 0.83 0.87 0.80 0.76 0.80 0.84 0.84 0.83 0.87 0.90 0.91 0.92 0.91 0.90 0.89 0.89 0.82 0.77 0.74
0.25 0.25 0.23 0.23 0.23 0.23 0.23 0.23 0.23 0.26 0.28 0.29 0.29 0.30 0.32 0.33 0.35 0.36 0.38 0.43 0.50 0.57 0.63 0.70 0.78 0.84 0.85 0.84 0.81 0.83 0.85 0.87 0.89 0.93 0.94 0.95 0.94 0.93 0.91 0.86 0.84 0.82 0.78 0.74
0.28 0.28 0.28 0.27 0.29 0.29 0.28 0.27 0.29 0.31 0.32 0.32 0.32 0.33 0.36 0.38 0.40 0.42 0.44 0.48 0.53 0.60 0.63 0.67 0.74 0.81 0.85 0.85 0.84 0.85 0.87 0.91 0.94 0.92 0.90 0.91 0.90 0.89 0.88 0.84 0.79 0.77 0.76 0.73
0.34 0.32 0.32 0.32 0.33 0.34 0.34 0.34 0.35 0.37 0.38 0.38 0.39 0.38 0.39 0.41 0.43 0.45 0.48 0.52 0.56 0.61 0.65 0.69 0.75 0.81 0.85 0.88 0.90 0.91 0.91 0.90 0.90 0.90 0.91 0.89 0.86 0.86 0.83 0.81 0.79 0.76 0.74 0.72